Home > Weather > Murmansk > Past weeks

Flag for Russia Past Weather in Murmansk, Russia — Yesterday and Last 2 Weeks

Now
50 °F

Sunny.


Feels Like: 50 °F
Forecast: 49 / 62 °F
Wind: 1 mph from South

Location: Murmansk Airport

Current Time: May 31, 2016 at 3:08:16 AM

Latest Report: May 31, 2016 at 2:00 AM


Visibility: 10 mi

Pressure: 30.36 "Hg

Humidity: 71%

Dew Point: 41 °F

Location of MurmanskLocation

Past Weather in Murmansk — Graph

°F

Murmansk Temperature Yesterday

Maximum temperature yesterday: 63 °F (at 1:00 PM)
Minimum temperature yesterday: 32 °F (at 1:30 AM)
Average temperature yesterday: 51 °F

High & Low Weather Summary for the Past Weeks

 TemperatureHumidityPressure
High72 °F (May 28, 4:30 PM)93% (May 16, 2:30 AM)30.48 "Hg (May 16, 2:30 AM)
Low32 °F (May 26, 3:00 AM)21% (May 19, 3:30 PM)29.36 "Hg (May 17, 1:30 PM)
Average50 °F63%30.00 "Hg
* Reported May 16 1:00 AM — May 31 1:30 AM, Murmansk, Weather by CustomWeather, © 2016

Note: Actual official high and low records may vary slightly from our data, if they occured in-between our weather recording intervals... More about our weather records

Advertising

Murmansk Weather History for the Previous 24 Hours

Scroll right to see more
 ConditionsComfort  
Time TempWeatherWind HumidityBarometerVisibility
1:30 AM
Tue, May 31
50 °FSunny.1 mph71%30.36 "Hg10 mi
1:00 AM50 °FSunny.1 mph71%30.36 "Hg10 mi
12:30 AM52 °FSunny.3 mph72%30.36 "Hg10 mi
12:00 AM52 °FSunny.1 mph72%30.36 "Hg10 mi
11:30 PM
Mon, May 30
54 °FScattered clouds.1 mph67%30.36 "HgN/A
11:00 PM54 °FScattered clouds.1 mph67%30.36 "HgN/A
10:30 PM54 °FScattered clouds.3 mph67%30.36 "HgN/A
10:00 PM55 °FScattered clouds.1 mph63%30.36 "HgN/A
9:30 PM55 °FScattered clouds.3 mph63%30.36 "HgN/A
9:00 PM57 °FScattered clouds.3 mph55%30.36 "HgN/A
8:30 PM57 °FScattered clouds.6 mph59%30.36 "HgN/A
8:00 PM59 °FScattered clouds.3 mph51%30.36 "HgN/A
7:00 PM61 °FScattered clouds.6 mph42%30.36 "HgN/A
6:30 PM61 °FScattered clouds.3 mph45%30.36 "HgN/A
6:00 PM63 °FScattered clouds.6 mph39%30.36 "HgN/A
5:30 PM63 °FSunny.6 mph39%30.36 "Hg10 mi
5:00 PM63 °FPassing clouds.6 mph37%30.36 "HgN/A
4:30 PM63 °FPassing clouds.3 mph39%30.39 "HgN/A
4:00 PM63 °FPassing clouds.6 mph39%30.39 "HgN/A
3:30 PM63 °FPassing clouds.3 mph39%30.39 "HgN/A
3:00 PM63 °FPassing clouds.6 mph39%30.39 "HgN/A
2:30 PM63 °FPassing clouds.6 mph37%30.39 "HgN/A
2:00 PM61 °FPassing clouds.3 mph39%30.39 "HgN/A
1:00 PM63 °FPassing clouds.6 mph37%30.42 "HgN/A
12:00 PM59 °FSunny.6 mph42%30.42 "Hg10 mi
11:30 AM57 °FSunny.6 mph44%30.42 "Hg10 mi
11:00 AM59 °FPassing clouds.6 mph42%30.42 "HgN/A
10:30 AM55 °FPassing clouds.6 mph47%30.42 "HgN/A
10:00 AM55 °FPassing clouds.6 mph44%30.45 "HgN/A
9:30 AM54 °FPassing clouds.6 mph47%30.45 "HgN/A
9:00 AM50 °FSunny.6 mph54%30.45 "Hg10 mi
8:30 AM48 °FSunny.6 mph58%30.45 "Hg10 mi
8:00 AM48 °FSunny.8 mph58%30.48 "Hg10 mi
7:30 AM46 °FSunny.8 mph62%30.48 "Hg10 mi
7:00 AM43 °FSunny.6 mph71%30.48 "Hg10 mi
6:30 AM41 °FSunny.8 mph76%30.48 "Hg10 mi
6:00 AM41 °FSunny.8 mph70%30.48 "Hg10 mi
5:30 AM41 °FSunny.6 mph76%30.48 "Hg10 mi
5:00 AM39 °FSunny.6 mph81%30.48 "Hg10 mi
4:00 AM39 °FSunny.6 mph75%30.48 "Hg10 mi
3:30 AM37 °FSunny.1 mph81%30.48 "Hg10 mi
3:00 AM36 °FSunny.1 mph93%30.48 "Hg10 mi
Weather by CustomWeather, © 2016

See weather overviewHow to use our weather pages